Location: Buch
(49.7331°N, 12.1098°E)
Time: 00:52:57
(UTC+00:00)

EO 1 Del DPAF - Pass Details

Date: 12 May 2021
Orbit: 505 x 510 km, 98.0° (Epoch: 23 June)

Event Time Altitude Azimuth Distance (km) Brightness Sun altitude
Rises 23:47:29 0° 12° (NNE) 2,632 8.4 -21.3°
Reaches altitude 10° 23:49:35 10° 11° (NNE) 1,740 7.0 -21.3°
Maximum altitude 23:53:20 78° 286° (WNW) 527 3.1 -21.1°
Enters shadow 23:53:33 74° 245° (WSW) 535 3.0 -21.1°
